Theta_e
343 342 341 339 338 336 335 336 337 336 335 335 335 333 332 331 332 332 333 337 337 335 333 334 335 336 339 344 344 344 344 344 345 346 347 347 347 346 345 343 341 338
344 342 342 342 340 337 336 336 336 337 336 335 334 332 331 331 333 333 333 337 339 337 335 335 335 335 338 342 343 343 342 342 342 344 346 346 347 347 345 343 342 339
345 343 343 343 341 338 336 336 337 337 335 335 334 332 330 329 331 333 335 336 339 339 338 337 336 336 336 339 342 343 342 341 340 341 343 344 346 347 345 343 342 340
345 344 342 342 340 339 338 337 336 336 336 335 333 332 330 329 330 334 336 337 337 338 339 338 337 337 336 337 339 340 340 339 339 340 342 342 344 345 345 345 343 341
346 344 342 341 341 340 340 337 336 335 335 334 333 332 331 330 330 333 335 336 336 336 337 338 337 337 337 336 337 338 338 338 338 339 340 340 342 343 343 344 343 340
347 345 343 342 341 342 341 338 335 334 334 334 333 332 331 329 330 332 334 334 334 334 335 336 336 336 337 337 337 337 337 338 338 338 339 338 339 340 342 343 342 339
348 346 344 343 343 343 342 339 336 335 334 334 334 333 331 330 330 331 333 332 332 332 333 334 335 336 337 337 338 337 337 337 338 338 337 337 337 338 339 340 341 339
349 348 346 345 344 344 342 340 339 337 336 336 335 333 331 330 330 331 332 332 331 332 333 334 334 335 335 337 336 337 337 337 337 337 337 336 336 336 336 337 338 338
350 348 347 346 346 344 343 342 340 339 338 337 335 333 331 331 330 330 331 331 331 331 331 333 334 334 334 334 335 335 335 335 335 335 336 335 335 334 334 336 336 336
350 350 349 348 347 345 343 341 340 340 339 338 336 334 333 331 331 330 329 330 330 329 329 331 332 333 333 334 333 333 334 333 333 334 334 334 333 333 333 335 335 336
350 350 350 350 348 347 344 342 340 340 339 338 337 336 333 332 331 331 330 329 329 328 328 329 330 331 332 332 332 332 333 333 333 333 332 332 333 332 332 333 334 334
352 351 351 350 350 349 347 343 341 339 338 337 337 336 333 332 332 331 329 329 329 328 328 328 330 330 331 332 332 332 332 332 332 333 332 333 333 333 332 333 333 332
352 352 352 351 351 350 349 347 343 341 339 337 336 336 334 332 331 330 330 329 329 328 328 329 329 330 331 332 332 332 332 332 332 332 332 332 333 333 333 333 333 333
352 352 352 351 352 352 351 350 346 344 341 339 337 336 334 332 331 330 330 329 329 329 329 329 329 330 330 331 332 332 332 332 332 332 332 333 333 333 334 334 334 333
352 353 353 353 353 353 353 352 350 347 345 342 340 338 335 333 332 331 331 330 330 330 330 330 330 330 331 331 332 332 332 332 333 333 333 333 333 334 335 335 335 334
354 354 353 353 353 354 354 354 352 350 348 346 344 341 338 335 334 333 332 331 331 330 330 330 330 330 331 331 332 332 332 332 333 333 334 334 335 336 337 336 336 336
354 354 354 354 354 354 355 355 354 352 351 349 348 344 341 338 336 335 334 333 332 331 331 331 331 330 331 331 332 331 332 333 333 333 335 336 337 338 337 338 338 338
355 355 355 355 355 355 356 356 355 355 353 352 350 348 345 342 339 336 334 335 334 333 332 332 332 331 331 331 331 332 332 333 334 335 337 338 338 338 339 340 340 341
355 355 355 355 356 356 357 357 357 356 355 354 352 351 349 346 342 338 335 336 335 335 335 334 333 332 332 332 332 333 333 334 336 337 339 339 340 340 341 341 343 344
355 355 355 356 357 358 358 358 358 358 357 356 355 354 352 350 345 341 339 337 337 337 337 336 335 334 333 333 334 334 334 336 338 340 341 342 342 343 343 344 345 346
356 356 356 357 358 359 359 359 360 360 359 359 357 356 355 353 350 345 341 339 338 339 339 338 337 336 335 335 334 335 337 339 341 342 344 344 345 345 346 347 347 348
357 358 358 359 359 359 360 360 361 361 361 361 360 358 358 356 353 349 344 342 342 341 341 339 337 336 337 336 336 337 340 342 343 344 345 345 345 346 347 348 349 350
357 357 358 359 359 360 361 362 362 362 362 363 361 361 360 358 354 350 347 345 344 343 341 340 337 337 338 338 338 340 343 344 345 345 346 346 346 346 348 349 350 351
356 356 358 359 360 362 362 362 363 363 363 363 363 362 362 359 357 354 351 348 346 342 341 340 338 337 339 339 340 342 344 345 346 346 346 347 347 348 349 350 351 352
356 357 360 361 362 363 362 363 363 363 363 363 363 363 363 361 359 358 356 354 350 347 345 344 341 339 341 341 342 343 346 346 347 347 348 348 349 350 350 351 352 353
358 360 361 362 362 363 362 363 363 363 363 363 364 364 363 363 362 360 358 357 356 353 351 348 346 344 343 343 343 344 345 347 348 349 349 349 349 350 351 352 352 353
Wind_Speed
41 41 41 40 38 36 35 33 32 31 30 29 27 24 22 21 22 22 21 20 20 19 19 20 19 19 18 18 18 18 17 15 14 13 14 14 14 14 14 13 13 13
42 42 41 41 40 38 36 34 33 32 31 29 27 24 22 20 21 22 21 21 20 18 18 20 20 20 19 19 19 19 18 16 15 14 15 15 14 14 14 13 13 13
44 43 42 42 40 39 37 35 34 33 32 30 28 25 22 20 20 20 21 21 20 19 18 19 20 21 20 20 20 20 19 18 16 16 15 15 15 15 14 13 13 13
44 44 43 42 41 39 38 37 36 34 33 31 29 27 24 21 20 20 21 20 20 20 19 18 19 21 21 21 21 21 20 19 18 17 17 16 16 15 15 14 14 14
43 43 42 42 41 40 39 39 37 35 34 33 30 28 26 23 22 21 21 21 20 20 19 19 19 20 22 22 22 22 21 20 19 19 19 18 17 16 16 16 15 15
44 43 42 42 41 40 39 39 38 37 35 34 32 30 27 25 24 23 23 22 21 21 21 20 20 20 22 23 23 23 22 22 21 20 21 19 18 17 17 18 18 16
44 44 43 43 42 41 40 39 38 38 36 35 34 32 29 27 26 24 24 24 23 23 22 22 22 22 22 23 24 25 24 23 22 22 23 22 20 20 19 19 19 18
43 43 43 43 43 42 41 40 39 38 37 36 35 34 31 29 27 26 26 25 25 25 24 24 24 23 23 23 24 25 25 24 24 24 24 23 23 22 21 20 20 20
42 42 42 43 43 44 43 41 40 39 38 37 35 34 33 31 30 28 28 28 27 26 26 25 25 25 25 25 25 25 25 25 24 24 24 24 24 23 22 22 22 22
42 42 42 43 43 43 43 42 41 39 38 37 36 35 35 33 32 31 30 30 30 29 28 27 27 26 26 26 26 26 26 25 25 25 25 24 24 23 22 23 23 23
42 41 42 42 42 43 43 42 41 39 38 36 36 36 35 34 34 34 33 33 32 31 30 29 29 28 27 27 27 27 27 27 26 26 26 26 25 24 24 24 24 24
43 42 41 41 41 41 42 42 41 40 38 37 36 35 35 35 35 35 35 34 34 33 32 31 31 30 29 29 28 28 28 28 28 28 28 28 28 27 27 26 26 25
44 42 40 39 39 39 40 41 41 41 40 38 37 36 35 35 35 36 35 35 35 34 34 33 32 32 31 31 30 30 30 30 30 29 30 30 30 29 29 29 29 28
44 42 40 39 38 37 38 40 41 42 41 39 38 37 36 36 36 36 35 36 36 36 36 35 35 34 34 33 32 32 32 32 31 31 31 31 31 31 31 31 31 31
44 43 41 40 38 38 38 39 41 41 41 41 40 39 37 36 36 36 36 37 37 37 37 37 37 37 36 35 34 33 33 33 32 32 32 32 32 32 32 32 32 33
44 43 42 40 39 38 37 38 40 40 41 41 41 40 38 36 36 37 37 38 38 38 38 39 39 38 37 36 35 34 34 34 34 33 33 33 33 33 34 34 33 33
44 43 42 41 40 38 37 37 38 40 40 41 41 40 38 37 37 37 38 39 39 39 39 40 40 39 37 36 35 35 35 35 35 35 34 34 34 34 35 34 34 34
44 43 42 41 40 39 37 36 37 39 40 41 41 40 39 38 38 38 38 39 40 41 41 41 41 39 38 37 36 36 36 36 36 36 36 36 36 35 35 35 35 35
43 42 41 40 40 38 37 36 37 38 40 41 41 40 39 39 38 38 39 39 40 41 42 42 41 40 39 38 37 36 36 37 37 38 38 37 37 36 36 36 36 35
41 41 40 39 38 37 37 37 37 37 38 39 40 40 40 39 38 38 39 40 41 42 42 42 42 41 40 39 38 37 37 37 38 38 38 39 38 38 37 36 36 36
40 40 39 37 36 36 36 36 35 35 36 37 38 39 39 38 37 37 38 39 40 41 42 43 42 41 40 39 39 38 38 38 38 38 38 39 39 38 38 37 37 36
38 38 37 36 35 36 36 35 34 34 34 34 35 36 36 36 36 36 37 38 39 40 42 43 41 40 40 39 38 38 38 38 38 38 38 38 38 38 38 37 37 37
36 36 35 35 35 36 36 34 32 32 32 32 33 33 33 33 33 33 35 36 38 39 40 41 40 38 38 39 38 38 38 38 38 38 38 38 37 37 37 37 37 37
35 34 34 34 34 35 34 32 31 31 31 31 32 31 29 28 28 29 31 33 35 37 38 39 38 37 38 38 38 38 38 38 38 37 38 38 37 36 36 36 37 36
34 35 34 33 33 33 32 31 30 30 30 31 31 30 28 26 26 28 29 30 32 33 35 37 37 36 37 37 37 37 37 37 37 37 38 38 37 36 36 36 36 36
35 35 34 33 32 31 30 30 30 30 31 32 32 31 29 28 28 28 29 29 31 32 33 34 35 34 34 35 35 35 35 35 36 37 38 37 36 36 36 36 36 36
Wind_Direction
226 226 227 228 228 228 227 227 229 231 233 234 234 234 234 234 235 234 230 224 223 223 224 227 229 228 226 227 231 233 234 235 235 234 235 239 242 244 245 245 246 244
227 227 227 229 230 229 228 228 229 231 234 236 236 236 236 237 237 234 230 226 224 222 222 226 229 229 226 227 230 233 235 235 235 235 236 239 241 244 246 246 248 247
228 228 228 229 230 230 229 228 229 231 234 237 238 237 238 238 237 234 229 227 227 225 224 225 228 228 227 226 228 232 235 236 236 237 239 241 241 243 244 247 249 250
229 229 229 230 231 230 230 230 230 231 233 236 237 238 239 238 236 233 229 227 228 227 226 226 227 228 228 227 228 232 235 237 238 239 242 242 242 243 243 245 248 249
230 230 230 229 230 231 232 232 232 232 234 235 237 238 238 237 235 232 229 226 226 227 227 227 227 227 228 228 229 232 235 237 238 240 243 242 241 242 242 243 245 246
231 231 231 231 230 231 233 233 233 233 235 236 238 238 237 236 235 232 229 228 228 229 230 229 228 227 228 229 231 233 234 237 238 240 243 244 242 242 241 240 242 244
232 232 232 233 232 233 234 233 234 234 235 236 238 238 236 235 235 233 231 231 231 232 232 231 229 228 228 229 232 234 235 237 239 240 243 246 246 245 243 241 241 243
233 233 234 234 234 235 235 235 235 234 235 236 236 237 237 235 235 235 234 234 233 233 233 232 230 229 230 231 232 234 235 237 239 240 243 246 248 248 247 245 244 245
232 234 234 235 235 236 236 236 235 235 235 235 235 236 237 236 236 237 237 238 237 236 234 233 233 231 231 232 233 234 234 236 237 240 243 246 248 250 250 250 249 250
232 234 234 236 237 237 238 237 236 236 235 235 235 235 236 237 238 239 240 241 241 240 238 237 236 235 234 234 235 235 236 236 237 240 243 246 249 251 253 253 254 254
232 233 235 236 238 238 239 238 237 236 236 235 235 235 236 237 238 240 240 241 242 241 240 239 239 238 238 238 238 238 238 239 240 241 244 246 249 251 253 254 255 257
231 232 234 236 238 239 240 239 238 236 236 236 236 236 237 238 239 239 240 240 241 241 241 241 241 241 241 241 241 241 241 242 242 243 246 248 249 250 252 253 255 258
231 232 234 236 238 240 240 240 239 238 237 237 237 238 239 239 239 239 239 240 241 242 243 243 244 244 244 243 243 243 244 244 244 245 247 248 250 251 251 253 255 257
231 232 234 235 238 240 241 241 240 239 239 239 239 239 240 240 240 239 240 241 242 244 245 245 246 246 246 246 246 245 246 246 247 248 249 249 251 251 252 253 254 256
231 232 234 235 237 239 241 242 241 240 240 240 240 240 241 241 241 241 242 243 244 245 246 247 248 248 247 247 247 248 248 249 250 251 252 252 253 254 254 255 255 256
231 232 233 234 236 238 241 243 242 241 240 240 241 241 242 242 242 243 244 244 245 246 247 248 248 248 249 249 250 251 251 253 253 254 255 256 257 257 258 258 257 258
230 232 233 234 235 237 241 243 243 242 241 241 242 242 243 243 244 245 245 245 247 247 248 249 249 249 250 250 252 252 253 255 256 257 259 259 260 261 261 262 263 264
230 232 233 234 236 237 240 243 244 244 243 242 242 242 243 244 244 245 246 247 248 249 249 250 250 250 251 252 253 254 255 256 257 259 260 261 263 264 265 267 268 269
232 233 235 236 238 239 240 243 244 245 244 244 243 243 244 245 245 246 247 247 249 250 250 252 252 252 253 253 255 255 256 257 258 259 261 263 265 267 268 270 271 272
234 235 237 239 240 241 242 243 244 246 246 246 245 245 244 245 246 246 247 248 249 251 252 253 254 255 256 256 257 258 258 259 259 260 261 263 266 268 270 271 272 273
234 236 238 240 241 242 242 243 245 246 247 246 246 246 246 247 247 248 249 249 251 252 253 254 255 256 257 258 259 260 261 261 261 261 262 264 266 268 270 271 273 274
234 236 238 240 241 241 241 242 244 246 246 246 246 246 247 248 248 249 250 251 252 253 254 255 256 257 258 259 260 261 262 262 262 263 263 265 266 267 269 270 272 273
236 237 239 240 240 240 240 241 243 245 246 245 245 245 246 247 248 249 250 252 253 253 254 255 256 257 258 259 261 261 261 262 263 264 265 266 267 268 269 270 271 272
239 239 240 240 240 241 242 243 244 245 245 245 245 245 247 249 250 252 253 254 254 254 255 256 257 258 258 259 261 261 261 262 263 265 266 267 268 269 269 270 271 272
241 241 240 241 242 243 245 246 247 247 246 246 246 247 249 251 252 253 253 254 255 255 256 257 258 259 260 261 262 262 262 263 263 265 266 267 268 269 270 270 271 272
240 241 242 243 244 246 248 249 249 249 247 247 248 249 251 251 251 253 254 255 256 256 257 258 259 260 261 262 263 264 263 264 264 264 266 268 270 271 272 273 274 275